Location: Sungai Bunut
(2.6333°N, 113.7333°E)
Time: 10:56:39
(UTC+00:00)

Transit 2A Rocket - Pass Details

Date: 07 December 2023
Orbit: 590 x 905 km, 66.7° (Epoch: 01 March)

Event Time Altitude Azimuth Distance (km) Brightness Sun altitude
Rises 22:26:30 0° 4° (N) 2,970 7.9 1.3°
Reaches altitude 10° 22:29:06 10° 18° (NNE) 2,110 7.3 1.9°
Maximum altitude 22:32:56 24° 71° (ENE) 1,473 7.3 2.7°
Drops below altitude 10° 22:37:01 10° 124° (ESE) 2,281 9.6 3.7°
Sets 22:39:57 0° 137° (SE) 3,271 9.7 4.4°
